When you browse on this site, cookies collect data to enhance your experience and personalize the content and advertising you see.
Visit our Privacy Policy to learn more. By continuing to use the site, you agree to this use of cookies and data.
  • In Switzerland
  • List of Countries
  • For 7 days
  • Water Temperature
  • Weather Map
  • Weather Widgets
  • user-avatar
    Login

    Hourly Weather Brolniki

    Today, 24 February, Monday

    Time Temperature Precipitation Wind Pressure Humidity
    00:00 +1°C° 0 mm 2 mps 732 mmHg 91%
    01:00 +1°C° 0 mm 2 mps 732 mmHg 93%
    02:00 +1°C° 0 mm 2 mps 731 mmHg 94%
    03:00 +1°C° 0 mm 2 mps 731 mmHg 94%
    04:00 -1°C° 0 mm 3 mps 731 mmHg 95%
    05:00 -1°C° 0 mm 3 mps 732 mmHg 96%
    06:00 -1°C° 0 mm 4 mps 732 mmHg 94%
    07:00 -1°C° 0 mm 5 mps 733 mmHg 91%
    08:00 -2°C° 0 mm 6 mps 734 mmHg 89%
    09:00 -1°C° 0.1 mm 6 mps 735 mmHg 85%
    10:00 -1°C° 0.1 mm 6 mps 735 mmHg 81%
    11:00 0°C° 0.1 mm 7 mps 736 mmHg 76%
    12:00 +2°C° 0 mm 7 mps 736 mmHg 68%
    13:00 +2°C° 0 mm 8 mps 737 mmHg 59%
    14:00 +2°C° 0 mm 8 mps 738 mmHg 51%
    15:00 +3°C° 0 mm 7 mps 738 mmHg 55%
    16:00 +2°C° 0 mm 5 mps 739 mmHg 59%
    17:00 +3°C° 0 mm 4 mps 739 mmHg 63%
    18:00 +1°C° 0 mm 4 mps 740 mmHg 67%
    19:00 +1°C° 0 mm 3 mps 740 mmHg 70%
    20:00 0°C° 0 mm 3 mps 741 mmHg 74%
    21:00 -1°C° 0 mm 3 mps 741 mmHg 75%
    22:00 -1°C° 0 mm 2 mps 741 mmHg 76%
    23:00 -1°C° 0 mm 2 mps 741 mmHg 77%

    Tomorrow, 25 February, Tuesday

    Time Temperature Precipitation Wind Pressure Humidity
    00:00 -1°C° 0 mm 2 mps 740 mmHg 78%
    01:00 -1°C° 0 mm 2 mps 740 mmHg 78%
    02:00 -1°C° 0 mm 2 mps 740 mmHg 78%
    03:00 -1°C° 0 mm 2 mps 739 mmHg 82%
    04:00 -1°C° 0 mm 3 mps 738 mmHg 85%
    05:00 -1°C° 0 mm 3 mps 738 mmHg 88%
    06:00 0°C° 0 mm 3 mps 737 mmHg 89%
    07:00 -1°C° 0 mm 4 mps 737 mmHg 91%
    08:00 -1°C° 0 mm 4 mps 736 mmHg 92%
    09:00 -1°C° 0 mm 5 mps 735 mmHg 92%
    10:00 -1°C° 0 mm 5 mps 734 mmHg 93%
    11:00 -1°C° 0 mm 6 mps 733 mmHg 93%
    12:00 -1°C° 0.4 mm 6 mps 733 mmHg 94%
    13:00 0°C° 0.4 mm 5 mps 732 mmHg 95%
    14:00 0°C° 0.4 mm 5 mps 731 mmHg 96%
    15:00 0°C° 0.1 mm 5 mps 731 mmHg 95%
    16:00 +1°C° 0.1 mm 5 mps 730 mmHg 94%
    17:00 +3°C° 0.1 mm 4 mps 730 mmHg 93%
    18:00 +3°C° 0.1 mm 4 mps 730 mmHg 93%
    19:00 +3°C° 0.1 mm 4 mps 730 mmHg 92%
    20:00 +4°C° 0.1 mm 4 mps 730 mmHg 91%
    21:00 +3°C° 0 mm 4 mps 729 mmHg 90%
    22:00 +3°C° 0 mm 3 mps 729 mmHg 89%
    23:00 +3°C° 0 mm 3 mps 729 mmHg 88%

    Day after tomorrow, 26 February, Wednesday

    Time Temperature Precipitation Wind Pressure Humidity
    00:00 +2°C° 0.4 mm 3 mps 729 mmHg 90%
    01:00 +3°C° 0.4 mm 2 mps 729 mmHg 92%
    02:00 +3°C° 0.4 mm 2 mps 729 mmHg 94%
    03:00 +3°C° 0 mm 2 mps 728 mmHg 92%
    04:00 +1°C° 0 mm 3 mps 728 mmHg 90%
    05:00 +1°C° 0 mm 3 mps 728 mmHg 89%
    06:00 -1°C° 0 mm 4 mps 728 mmHg 87%
    07:00 -1°C° 0 mm 4 mps 728 mmHg 85%
    08:00 -1°C° 0 mm 4 mps 728 mmHg 83%
    09:00 0°C° 0 mm 4 mps 728 mmHg 77%
    10:00 +1°C° 0 mm 5 mps 728 mmHg 71%
    11:00 +2°C° 0 mm 5 mps 729 mmHg 65%
    12:00 +3°C° 0 mm 5 mps 729 mmHg 63%
    13:00 +3°C° 0 mm 5 mps 729 mmHg 60%
    14:00 +5°C° 0 mm 5 mps 729 mmHg 58%
    15:00 +4°C° 0 mm 4 mps 728 mmHg 61%
    16:00 +4°C° 0 mm 4 mps 728 mmHg 64%
    17:00 +3°C° 0 mm 3 mps 728 mmHg 67%
    18:00 +3°C° 0 mm 3 mps 728 mmHg 70%
    19:00 +2°C° 0 mm 3 mps 729 mmHg 73%
    20:00 +3°C° 0 mm 2 mps 729 mmHg 76%
    21:00 +2°C° 0 mm 2 mps 729 mmHg 78%
    22:00 +2°C° 0 mm 2 mps 729 mmHg 80%
    23:00 +2°C° 0 mm 2 mps 729 mmHg 82%

    27 February, Thursday

    Time Temperature Precipitation Wind Pressure Humidity
    00:00 +1°C° 0 mm 2 mps 729 mmHg 84%
    01:00 +1°C° 0 mm 2 mps 729 mmHg 86%
    02:00 +2°C° 0 mm 1 mps 729 mmHg 89%
    03:00 +2°C° 0 mm 1 mps 729 mmHg 90%
    04:00 +2°C° 0 mm 1 mps 729 mmHg 91%
    05:00 +1°C° 0 mm 1 mps 729 mmHg 92%
    06:00 -1°C° 0.6 mm 2 mps 729 mmHg 93%
    07:00 -1°C° 0.6 mm 2 mps 729 mmHg 95%
    08:00 -1°C° 0.6 mm 2 mps 730 mmHg 97%
    09:00 -1°C° 0.5 mm 3 mps 730 mmHg 95%
    10:00 -2°C° 0.5 mm 4 mps 730 mmHg 92%
    11:00 -2°C° 0.5 mm 5 mps 731 mmHg 90%
    12:00 -2°C° 0.1 mm 5 mps 731 mmHg 84%
    13:00 -2°C° 0.1 mm 5 mps 732 mmHg 79%
    14:00 -1°C° 0.1 mm 5 mps 733 mmHg 73%
    15:00 -2°C° 0 mm 5 mps 733 mmHg 72%
    16:00 -2°C° 0 mm 5 mps 733 mmHg 71%
    17:00 -2°C° 0 mm 4 mps 734 mmHg 69%
    18:00 -3°C° 0 mm 4 mps 734 mmHg 72%
    19:00 -4°C° 0 mm 3 mps 734 mmHg 74%
    20:00 -5°C° 0 mm 3 mps 735 mmHg 77%
    21:00 -4°C° 0 mm 2 mps 735 mmHg 78%
    22:00 -4°C° 0 mm 2 mps 735 mmHg 80%
    23:00 -4°C° 0 mm 2 mps 735 mmHg 81%

    28 February, Friday

    Time Temperature Precipitation Wind Pressure Humidity
    00:00 -5°C° 0 mm 2 mps 735 mmHg 82%
    01:00 -5°C° 0 mm 2 mps 735 mmHg 82%
    02:00 -6°C° 0 mm 3 mps 735 mmHg 83%
    03:00 -6°C° 0 mm 3 mps 735 mmHg 82%
    04:00 -6°C° 0 mm 3 mps 735 mmHg 82%
    05:00 -6°C° 0 mm 3 mps 735 mmHg 81%
    06:00 -6°C° 0 mm 3 mps 735 mmHg 81%
    07:00 -6°C° 0 mm 3 mps 736 mmHg 80%
    08:00 -6°C° 0 mm 3 mps 736 mmHg 79%
    09:00 -7°C° 0 mm 4 mps 736 mmHg 75%
    10:00 -5°C° 0 mm 4 mps 736 mmHg 71%
    11:00 -5°C° 0 mm 4 mps 736 mmHg 67%
    12:00 -4°C° 0 mm 4 mps 736 mmHg 61%
    13:00 -4°C° 0 mm 4 mps 736 mmHg 54%
    14:00 -3°C° 0 mm 4 mps 737 mmHg 48%
    15:00 -4°C° 0 mm 4 mps 737 mmHg 48%
    16:00 -4°C° 0 mm 4 mps 737 mmHg 47%
    17:00 -4°C° 0 mm 4 mps 737 mmHg 46%
    18:00 -5°C° 0 mm 4 mps 738 mmHg 48%
    19:00 -5°C° 0 mm 4 mps 738 mmHg 51%
    20:00 -7°C° 0 mm 4 mps 739 mmHg 53%
    21:00 -7°C° 0 mm 4 mps 739 mmHg 56%
    22:00 -7°C° 0 mm 4 mps 739 mmHg 59%
    23:00 -7°C° 0 mm 4 mps 740 mmHg 61%

    29 February, Saturday

    Time Temperature Precipitation Wind Pressure Humidity
    00:00 -7°C° 0 mm 5 mps 740 mmHg 65%
    01:00 -7°C° 0 mm 5 mps 740 mmHg 68%
    02:00 -7°C° 0 mm 5 mps 740 mmHg 72%
    03:00 -7°C° 0 mm 5 mps 740 mmHg 73%
    04:00 -8°C° 0 mm 5 mps 741 mmHg 75%
    05:00 -8°C° 0 mm 5 mps 741 mmHg 77%
    06:00 -8°C° 0 mm 5 mps 741 mmHg 78%
    07:00 -8°C° 0 mm 5 mps 741 mmHg 78%
    08:00 -7°C° 0 mm 5 mps 742 mmHg 79%
    09:00 -7°C° 0 mm 5 mps 742 mmHg 69%
    10:00 -6°C° 0 mm 5 mps 742 mmHg 59%
    11:00 -5°C° 0 mm 5 mps 742 mmHg 49%
    12:00 -4°C° 0 mm 5 mps 742 mmHg 46%
    13:00 -3°C° 0 mm 4 mps 742 mmHg 44%
    14:00 -2°C° 0 mm 4 mps 742 mmHg 41%
    15:00 -2°C° 0 mm 4 mps 742 mmHg 44%
    16:00 -2°C° 0 mm 3 mps 742 mmHg 48%
    17:00 -2°C° 0 mm 2 mps 742 mmHg 52%
    18:00 -3°C° 0 mm 2 mps 742 mmHg 56%
    19:00 -1°C° 0 mm 1 mps 742 mmHg 60%
    20:00 -2°C° 0 mm 1 mps 742 mmHg 64%
    21:00 -2°C° 0 mm 1 mps 742 mmHg 65%
    22:00 -2°C° 0 mm 1 mps 742 mmHg 65%
    23:00 -2°C° 0 mm 1 mps 742 mmHg 66%
    Show more